TimeCDT,TemperatureF,Dew PointF,Humidity,Sea Level PressureIn,VisibilityMPH,Wind Direction,Wind SpeedMPH,Gust SpeedMPH,PrecipitationIn,Events,Conditions,WindDirDegrees,DateUTC
12:15 AM,73.4,59.0,61,30.01,10.0,South,9.2,-,N/A,,Clear,170,2013-05-08 05:15:00
12:35 AM,71.6,60.8,69,30.01,10.0,South,8.1,-,N/A,,Clear,170,2013-05-08 05:35:00
12:55 AM,71.6,60.8,69,30.01,10.0,South,8.1,-,N/A,,Clear,170,2013-05-08 05:55:00
1:15 AM,71.6,60.8,69,30.00,10.0,SSE,6.9,-,N/A,,Clear,160,2013-05-08 06:15:00
1:55 AM,71.6,60.8,69,29.99,10.0,SSE,5.8,-,N/A,,Clear,160,2013-05-08 06:55:00
2:15 AM,69.8,60.8,73,29.98,10.0,SSE,5.8,-,N/A,,Clear,160,2013-05-08 07:15:00
2:35 AM,69.8,60.8,73,29.98,10.0,SSE,6.9,-,N/A,Rain,Light Rain,160,2013-05-08 07:35:00
2:55 AM,69.8,59.0,68,29.98,10.0,South,6.9,-,N/A,,Clear,170,2013-05-08 07:55:00
3:15 AM,69.8,59.0,68,29.98,10.0,South,6.9,-,N/A,,Clear,170,2013-05-08 08:15:00
3:35 AM,69.8,59.0,68,29.98,10.0,South,6.9,-,N/A,,Clear,180,2013-05-08 08:35:00
3:55 AM,68.0,59.0,73,29.97,10.0,South,6.9,-,N/A,,Clear,180,2013-05-08 08:55:00
4:15 AM,68.0,59.0,73,29.97,10.0,SSE,5.8,-,N/A,,Clear,160,2013-05-08 09:15:00
4:35 AM,66.2,59.0,78,29.97,10.0,SSE,6.9,-,N/A,,Clear,160,2013-05-08 09:35:00
4:55 AM,66.2,59.0,78,29.97,10.0,SSE,9.2,-,N/A,,Clear,160,2013-05-08 09:55:00
5:15 AM,66.2,60.8,83,29.97,10.0,South,12.7,17.3,N/A,,Clear,170,2013-05-08 10:15:00
5:35 AM,66.2,60.8,83,29.97,10.0,South,11.5,-,N/A,,Mostly Cloudy,170,2013-05-08 10:35:00
5:55 AM,66.2,60.8,83,29.98,10.0,South,10.4,-,N/A,,Overcast,170,2013-05-08 10:55:00
6:15 AM,66.2,60.8,83,29.97,10.0,South,12.7,-,N/A,,Overcast,170,2013-05-08 11:15:00
6:35 AM,66.2,62.6,88,29.98,10.0,South,10.4,-,N/A,,Overcast,170,2013-05-08 11:35:00
6:55 AM,66.2,62.6,88,29.99,10.0,South,11.5,-,N/A,,Overcast,170,2013-05-08 11:55:00
7:15 AM,66.2,62.6,88,29.99,9.0,South,12.7,-,N/A,,Overcast,180,2013-05-08 12:15:00
7:35 AM,66.2,62.6,88,30.00,9.0,South,11.5,18.4,N/A,,Overcast,190,2013-05-08 12:35:00
7:55 AM,66.2,62.6,88,30.01,8.0,South,13.8,-,N/A,,Overcast,190,2013-05-08 12:55:00
8:15 AM,66.2,62.6,88,30.01,8.0,South,15.0,-,N/A,,Overcast,170,2013-05-08 13:15:00
8:35 AM,66.2,62.6,88,30.01,7.0,South,12.7,20.7,N/A,,Overcast,170,2013-05-08 13:35:00
8:55 AM,66.2,62.6,88,30.02,10.0,South,12.7,19.6,N/A,,Overcast,170,2013-05-08 13:55:00
9:15 AM,66.2,62.6,88,30.02,10.0,South,17.3,-,N/A,,Overcast,180,2013-05-08 14:15:00
9:35 AM,66.2,62.6,88,30.03,10.0,South,16.1,20.7,N/A,,Overcast,180,2013-05-08 14:35:00
9:55 AM,66.2,62.6,88,30.04,10.0,South,12.7,-,N/A,,Overcast,180,2013-05-08 14:55:00
10:15 AM,66.2,62.6,88,30.05,9.0,South,13.8,-,N/A,,Overcast,190,2013-05-08 15:15:00
10:35 AM,66.2,62.6,88,30.05,9.0,South,11.5,17.3,N/A,,Overcast,190,2013-05-08 15:35:00
10:55 AM,66.2,62.6,88,30.05,9.0,South,12.7,16.1,N/A,,Overcast,190,2013-05-08 15:55:00
11:15 AM,66.2,62.6,88,30.06,9.0,South,10.4,-,N/A,,Overcast,180,2013-05-08 16:15:00
11:35 AM,66.2,62.6,88,30.05,7.0,SSW,10.4,-,N/A,,Overcast,200,2013-05-08 16:35:00
11:55 AM,68.0,62.6,83,30.06,9.0,SSW,10.4,-,N/A,,Overcast,200,2013-05-08 16:55:00
12:15 PM,69.8,62.6,78,30.05,8.0,South,11.5,-,N/A,,Overcast,190,2013-05-08 17:15:00
12:35 PM,69.8,62.6,78,30.05,10.0,South,12.7,18.4,N/A,,Overcast,190,2013-05-08 17:35:00
12:55 PM,69.8,64.4,83,30.04,10.0,SSW,9.2,-,N/A,,Overcast,200,2013-05-08 17:55:00
1:15 PM,71.6,64.4,78,30.03,9.0,South,10.4,-,N/A,,Overcast,190,2013-05-08 18:15:00
1:35 PM,71.6,64.4,78,30.03,10.0,South,10.4,-,N/A,,Overcast,180,2013-05-08 18:35:00
1:55 PM,73.4,62.6,69,30.02,10.0,South,12.7,-,N/A,,Overcast,190,2013-05-08 18:55:00
2:15 PM,73.4,62.6,69,30.02,10.0,SSW,11.5,-,N/A,,Mostly Cloudy,200,2013-05-08 19:15:00
2:35 PM,75.2,62.6,65,30.01,10.0,South,12.7,-,N/A,,Mostly Cloudy,190,2013-05-08 19:35:00
2:55 PM,75.2,62.6,65,30.01,10.0,SSE,10.4,-,N/A,,Mostly Cloudy,160,2013-05-08 19:55:00
3:15 PM,75.2,62.6,65,30.00,10.0,South,12.7,-,N/A,,Mostly Cloudy,180,2013-05-08 20:15:00
3:35 PM,75.2,62.6,65,30.00,9.0,South,11.5,-,N/A,,Mostly Cloudy,170,2013-05-08 20:35:00
3:55 PM,77.0,62.6,61,29.99,9.0,SSE,9.2,-,N/A,,Mostly Cloudy,160,2013-05-08 20:55:00
4:15 PM,78.8,62.6,57,29.97,10.0,South,10.4,16.1,N/A,,Scattered Clouds,170,2013-05-08 21:15:00
4:35 PM,78.8,62.6,57,29.96,10.0,South,11.5,-,N/A,,Partly Cloudy,170,2013-05-08 21:35:00
4:55 PM,78.8,62.6,57,29.95,10.0,SSE,11.5,-,N/A,,Partly Cloudy,150,2013-05-08 21:55:00
5:15 PM,78.8,60.8,54,29.95,10.0,SE,4.6,-,N/A,,Clear,130,2013-05-08 22:15:00
5:35 PM,78.8,60.8,54,29.94,10.0,SSE,6.9,-,N/A,,Partly Cloudy,150,2013-05-08 22:35:00
5:55 PM,77.0,60.8,57,29.94,10.0,South,8.1,-,N/A,,Partly Cloudy,180,2013-05-08 22:55:00
6:15 PM,77.0,60.8,57,29.93,10.0,SE,10.4,-,N/A,,Clear,140,2013-05-08 23:15:00
6:35 PM,78.8,60.8,54,29.93,10.0,SSE,9.2,-,N/A,,Clear,160,2013-05-08 23:35:00
6:55 PM,78.8,60.8,54,29.93,10.0,SE,10.4,-,N/A,,Clear,140,2013-05-08 23:55:00
7:15 PM,77.0,60.8,57,29.94,9.0,South,12.7,-,N/A,,Clear,170,2013-05-09 00:15:00
7:35 PM,77.0,60.8,57,29.93,10.0,SSE,11.5,-,N/A,,Clear,160,2013-05-09 00:35:00
7:55 PM,75.2,60.8,61,29.93,10.0,SSE,10.4,-,N/A,,Clear,150,2013-05-09 00:55:00
8:15 PM,75.2,62.6,65,29.93,10.0,SSE,8.1,-,N/A,,Clear,150,2013-05-09 01:15:00
8:35 PM,75.2,62.6,65,29.93,10.0,SSE,6.9,-,N/A,,Clear,150,2013-05-09 01:35:00
8:55 PM,73.4,62.6,69,29.94,10.0,SSE,6.9,-,N/A,,Clear,160,2013-05-09 01:55:00
9:15 PM,73.4,62.6,69,29.95,10.0,South,6.9,-,N/A,,Clear,170,2013-05-09 02:15:00
9:35 PM,73.4,62.6,69,29.95,10.0,SSE,5.8,-,N/A,,Clear,160,2013-05-09 02:35:00
9:55 PM,73.4,62.6,69,29.95,10.0,South,6.9,-,N/A,,Clear,170,2013-05-09 02:55:00
10:15 PM,73.4,62.6,69,29.95,10.0,SSE,6.9,-,N/A,,Clear,160,2013-05-09 03:15:00
10:35 PM,73.4,62.6,69,29.96,10.0,SSE,4.6,-,N/A,,Clear,160,2013-05-09 03:35:00
10:55 PM,71.6,62.6,73,29.96,10.0,Calm,Calm,-,N/A,,Clear,0,2013-05-09 03:55:00